Home   Weather   Petah Tikva   Past weeks

Flag for Israel Past Weather in Petah Tikva, Israel — Yesterday and Last 2 Weeks

70 °F

Passing clouds.

Feels Like: 70 °F
Forecast: 67 / 79 °F
Wind: 2 mph from North

Location: Ben Gurion International Airport

Current Time: Oct 22, 2016 at 10:52:21 PM

Latest Report: Oct 22, 2016 at 10:20 PM

Visibility: N/A

Pressure: 30.04 "Hg

Humidity: 64%

Dew Point: 57 °F

Location of Petah TikvaLocation

Past Weather in Petah Tikva — Graph


Petah Tikva Temperature Yesterday

Maximum temperature yesterday: 81 °F (at 11:50 AM)
Minimum temperature yesterday: 64 °F (at 6:20 AM)
Average temperature yesterday: 73 °F

High & Low Weather Summary for the Past Weeks

High91 °F (Oct 13, 11:50 AM)89% (Oct 14, 11:50 PM)30.07 "Hg (Oct 14, 11:50 PM)
Low63 °F (Oct 16, 6:50 AM)22% (Oct 14, 10:50 AM)29.86 "Hg (Oct 16, 2:20 PM)
Average76 °F61%29.97 "Hg
* Reported Oct 7 9:20 PM — Oct 22 9:20 PM, Petah Tikva, Weather by CustomWeather, © 2016

Note: Actual official high and low records may vary slightly from our data, if they occured in-between our weather recording intervals... More about our weather records


Petah Tikva Weather History for the Previous 24 Hours

Scroll right to see more
Time TempWeatherWind HumidityBarometerVisibility
9:20 PM
Sat, Oct 22
73 °FClear.2 mph61%30.04 "Hg10 mi
8:50 PM73 °FClear.3 mph57%30.04 "Hg10 mi
8:20 PM73 °FClear.3 mph61%30.04 "Hg10 mi
7:50 PM75 °FClear.3 mph57%30.04 "Hg10 mi
7:20 PM75 °FClear.5 mph57%30.04 "Hg10 mi
6:50 PM75 °FClear.8 mph57%30.01 "Hg10 mi
6:20 PM75 °FPassing clouds.8 mph57%30.01 "HgN/A
5:50 PM77 °FPassing clouds.10 mph54%30.01 "HgN/A
5:20 PM77 °FPassing clouds.12 mph54%30.01 "HgN/A
4:50 PM79 °FPassing clouds.13 mph51%30.01 "HgN/A
4:20 PM79 °FPassing clouds.12 mph51%29.98 "HgN/A
3:50 PM79 °FPassing clouds.13 mph51%29.98 "HgN/A
3:20 PM81 °FPassing clouds.14 mph48%29.98 "HgN/A
2:50 PM81 °FPassing clouds.10 mph48%29.98 "HgN/A
2:20 PM81 °FPassing clouds.10 mph48%29.98 "HgN/A
1:50 PM81 °FPassing clouds.10 mph48%29.98 "HgN/A
1:20 PM81 °FScattered clouds.10 mph48%29.98 "HgN/A
12:50 PM81 °FScattered clouds.9 mph48%29.98 "HgN/A
12:20 PM81 °FScattered clouds.8 mph48%29.98 "HgN/A
11:50 AM81 °FScattered clouds.7 mph48%30.01 "HgN/A
11:20 AM79 °FScattered clouds.7 mph51%30.01 "HgN/A
10:50 AM79 °FScattered clouds.9 mph51%30.01 "HgN/A
10:20 AM79 °FPassing clouds.8 mph54%30.01 "HgN/A
9:50 AM77 °FSunny.7 mph54%30.01 "Hg10 mi
9:20 AM75 °FSunny.5 mph57%30.01 "Hg10 mi
8:50 AM73 °FSunny.1 mph61%30.01 "Hg10 mi
8:20 AM70 °FSunny.2 mph69%30.01 "Hg10 mi
7:50 AM66 °FSunny.No wind78%30.01 "Hg10 mi
7:20 AM66 °FSunny.1 mph73%29.98 "Hg10 mi
6:50 AM64 °FSunny.3 mph78%29.98 "Hg10 mi
6:20 AM68 °FClear.3 mph73%29.98 "Hg10 mi
5:50 AM68 °FClear.2 mph73%29.98 "Hg10 mi
5:20 AM68 °FClear.3 mph78%29.98 "Hg10 mi
4:50 AM66 °FClear.3 mph78%29.98 "Hg10 mi
4:20 AM66 °FClear.2 mph78%29.98 "Hg10 mi
3:50 AM66 °FClear.2 mph78%29.98 "Hg10 mi
3:20 AM68 °FClear.3 mph78%29.98 "Hg10 mi
2:50 AM68 °FClear.1 mph78%29.98 "Hg10 mi
2:20 AM68 °FClear.3 mph78%29.98 "Hg10 mi
1:50 AM68 °FClear.2 mph83%29.98 "Hg10 mi
1:20 AM68 °FClear.1 mph73%29.98 "Hg10 mi
12:50 AM70 °FClear.2 mph73%29.98 "Hg10 mi
12:20 AM70 °FClear.3 mph73%29.98 "Hg10 mi
11:50 PM
Fri, Oct 21
72 °FClear.2 mph69%29.98 "Hg10 mi
11:20 PM72 °FClear.1 mph73%29.98 "Hg10 mi
10:50 PM73 °FClear.3 mph69%29.98 "Hg10 mi
10:20 PM73 °FClear.2 mph69%29.98 "Hg10 mi
Weather by CustomWeather, © 2016

See weather overviewHow to use our weather pages